Mason, MI

11:03 PM EST on February 17, 2018 (GMT -0500)
Mason Jewett

Weather History for KTEW - April, 2013

Change the Weather History Date:

Saturday, April 27, 2013

  Actual Average (KLAN) Record (KLAN)
Temperature  
Mean Temperature 54 °F -  
Max Temperature 68 °F 63 °F 84 °F (1986)
Min Temperature 41 °F 39 °F 24 °F (1867)
Degree Days  
Heating Degree Days 10    
Growing Degree Days 4 (Base 50)    
Moisture  
Dew Point 35 °F    
Average Humidity 49    
Maximum Humidity 76    
Minimum Humidity 27    
Precipitation  
Precipitation 0.00 in - - ()
Sea Level Pressure  
Sea Level Pressure 30.24 in    
Wind  
Wind Speed 5 mph (SSE)    
Max Wind Speed 14 mph    
Max Gust Speed 22 mph    
Visibility 10 miles    
Events      
Averages and records for this station are not official NWS values.
T = Trace of Precipitation, MM = Missing Value Source: NWS Daily Summary

Daily Weather History Graph

Daily Weather History Graph

Search for Another Location

Airport or City:

Trip Planner

Search our weather history database for the weather conditions in past years. The results will help you decide how hot, cold, wet, or windy it might be!

Date:

Astronomy

Apr. 27, 2013 Rise Set
Actual Time 6:37 AM EDT 8:33 PM EDT
Civil Twilight 6:07 AM EDT 9:04 PM EDT
Nautical Twilight 5:30 AM EDT 9:41 PM EDT
Astronomical Twilight 4:50 AM EDT 10:21 PM EDT
Moon 11:04 PM EDT (4/27) 7:53 AM EDT (4/27)
Length of Visible Light 14h 56m
Length of Day
13h 55m
Waning Gibbous, 95% of the Moon is Illuminated
Apr 27
Waning Gibbous
May 2
Last Quarter
May 9
New
May 18
First Quarter
May 25
Full

Hourly Weather History & Observations

Time (EDT) Temp. Windchill Dew Point Humidity Pressure Visibility Wind Dir Wind Speed Gust Speed Precip Events Conditions
12:16 AM 47.8 °F - 34.9 °F 61% 30.34 in 10.0 mi South 4.6 mph - N/A   Clear
12:37 AM 47.3 °F - 35.1 °F 62% 30.33 in 10.0 mi South 4.6 mph - N/A   Clear
12:56 AM 46.6 °F - 35.1 °F 64% 30.33 in 10.0 mi South 3.5 mph - N/A   Clear
1:15 AM 45.9 °F 44.6 °F 35.2 °F 66% 30.33 in 10.0 mi South 3.5 mph - N/A   Clear
1:36 AM 45.9 °F 42.9 °F 35.1 °F 66% 30.33 in 10.0 mi South 5.8 mph - N/A   Clear
1:56 AM 45.7 °F 44.4 °F 34.9 °F 66% 30.32 in 10.0 mi South 3.5 mph - N/A   Clear
2:15 AM 45.7 °F 44.4 °F 34.7 °F 65% 30.33 in 10.0 mi South 3.5 mph - N/A   Clear
2:36 AM 45.1 °F - 34.7 °F 67% 30.32 in 10.0 mi Calm Calm - N/A   Clear
2:56 AM 45.5 °F - 34.7 °F 66% 30.32 in 10.0 mi Calm Calm - N/A   Clear
3:15 AM 45.9 °F - 34.3 °F 64% 30.31 in 10.0 mi Calm Calm - N/A   Clear
3:36 AM 43.7 °F - 34.9 °F 71% 30.31 in 10.0 mi Calm Calm - N/A   Clear
3:56 AM 44.8 °F - 34.7 °F 68% 30.31 in 10.0 mi Calm Calm - N/A   Clear
4:16 AM 42.3 °F - 34.3 °F 74% 30.31 in 10.0 mi Calm Calm - N/A   Clear
4:36 AM 41.5 °F - 34.3 °F 76% 30.31 in 10.0 mi Calm Calm - N/A   Clear
4:56 AM 41.5 °F - 34.2 °F 75% 30.31 in 10.0 mi Calm Calm - N/A   Clear
5:16 AM 43.7 °F - 34.2 °F 69% 30.31 in 10.0 mi Calm Calm - N/A   Clear
5:36 AM 41.7 °F - 33.8 °F 73% 30.31 in 10.0 mi Calm Calm - N/A   Clear
5:56 AM 42.3 °F 40.5 °F 33.8 °F 72% 30.31 in 10.0 mi SSE 3.5 mph - N/A   Clear
6:16 AM 43.3 °F 40.7 °F 34.0 °F 70% 30.31 in 10.0 mi South 4.6 mph - N/A   Clear
6:36 AM 43.7 °F - 34.0 °F 69% 30.30 in 10.0 mi Calm Calm - N/A   Clear
6:56 AM 43.2 °F 41.5 °F 33.8 °F 70% 30.30 in 10.0 mi SSE 3.5 mph - N/A   Clear
7:16 AM 42.8 °F - 33.8 °F 70% 30.31 in 10.0 mi Calm Calm - N/A   Clear
7:36 AM 44.1 °F - 34.5 °F 69% 30.31 in 10.0 mi Calm Calm - N/A   Clear
7:56 AM 44.8 °F 42.4 °F 36.1 °F 72% 30.31 in 10.0 mi SSE 4.6 mph - N/A   Clear
8:16 AM 48.0 °F - 37.2 °F 66% 30.32 in 10.0 mi SSE 3.5 mph - N/A   Clear
8:36 AM 50.0 °F - 38.3 °F 64% 30.32 in 10.0 mi SSE 5.8 mph - N/A   Clear
8:56 AM 51.8 °F - 38.3 °F 60% 30.32 in 10.0 mi SSE 4.6 mph - N/A   Clear
9:16 AM 54.7 °F - 39.0 °F 56% 30.32 in 10.0 mi SSE 5.8 mph - N/A   Clear
9:36 AM 56.3 °F - 37.8 °F 50% 30.31 in 10.0 mi SSE 6.9 mph - N/A   Clear
9:56 AM 57.6 °F - 37.4 °F 47% 30.30 in 10.0 mi SSE 5.8 mph - N/A   Clear
10:16 AM 58.6 °F - 37.4 °F 45% 30.30 in 10.0 mi SSE 6.9 mph - N/A   Clear
10:37 AM 59.9 °F - 36.5 °F 42% 30.29 in 10.0 mi South 4.6 mph - N/A   Clear
10:56 AM 60.4 °F - 37.0 °F 42% 30.29 in 10.0 mi South 4.6 mph - N/A   Clear
11:16 AM 61.2 °F - 37.4 °F 41% 30.29 in 10.0 mi South 9.2 mph - N/A   Clear
11:37 AM 62.1 °F - 37.6 °F 40% 30.28 in 10.0 mi South 5.8 mph - N/A   Clear
11:56 AM 62.6 °F - 37.6 °F 40% 30.28 in 10.0 mi SE 9.2 mph - N/A   Clear
12:16 PM 63.3 °F - 37.4 °F 38% 30.27 in 10.0 mi SSE 9.2 mph 16.1 mph N/A   Clear
12:36 PM 64.0 °F - 36.1 °F 36% 30.26 in 10.0 mi SSE 9.2 mph - N/A   Clear
12:56 PM 64.8 °F - 35.2 °F 33% 30.26 in 10.0 mi SSE 10.4 mph - N/A   Clear
1:16 PM 65.1 °F - 35.1 °F 33% 30.25 in 10.0 mi SSE 5.8 mph - N/A   Clear
1:36 PM 65.3 °F - 34.5 °F 32% 30.25 in 10.0 mi SSE 9.2 mph 16.1 mph N/A   Clear
1:56 PM 65.8 °F - 34.2 °F 31% 30.24 in 10.0 mi South 9.2 mph - N/A   Clear
2:16 PM 66.6 °F - 33.4 °F 29% 30.23 in 10.0 mi South 11.5 mph 17.3 mph N/A   Clear
2:36 PM 67.1 °F - 33.3 °F 29% 30.23 in 10.0 mi SSE 6.9 mph - N/A   Clear
2:56 PM 67.3 °F - 32.7 °F 28% 30.23 in 10.0 mi South 8.1 mph - N/A   Clear
3:17 PM 67.5 °F - 32.4 °F 27% 30.22 in 10.0 mi South 12.7 mph - N/A   Clear
3:36 PM 67.6 °F - 32.9 °F 28% 30.21 in 10.0 mi SSE 11.5 mph 17.3 mph N/A   Clear
3:56 PM 68.0 °F - 32.5 °F 27% 30.20 in 10.0 mi SSE 12.7 mph 17.3 mph N/A   Clear
4:16 PM 68.4 °F - 32.5 °F 27% 30.19 in 10.0 mi SSE 6.9 mph - N/A   Clear
4:36 PM 68.0 °F - 33.4 °F 28% 30.18 in 10.0 mi SE 11.5 mph - N/A   Clear
4:56 PM 68.2 °F - 32.5 °F 27% 30.17 in 10.0 mi SSE 13.8 mph 21.9 mph N/A   Clear
5:16 PM 68.4 °F - 33.1 °F 27% 30.16 in 10.0 mi SSE 9.2 mph - N/A   Clear
5:36 PM 68.5 °F - 33.1 °F 27% 30.16 in 10.0 mi SE 8.1 mph - N/A   Clear
5:57 PM 68.4 °F - 33.6 °F 28% 30.15 in 10.0 mi South 6.9 mph - N/A   Clear
6:16 PM 68.2 °F - 33.1 °F 27% 30.15 in 10.0 mi South 5.8 mph - N/A   Clear
6:37 PM 67.5 °F - 33.1 °F 28% 30.14 in 10.0 mi ESE 8.1 mph - N/A   Clear
6:56 PM 67.1 °F - 33.3 °F 29% 30.14 in 10.0 mi SE 10.4 mph - N/A   Clear
7:16 PM 66.4 °F - 32.9 °F 29% 30.13 in 10.0 mi SSE 10.4 mph - N/A   Clear
7:37 PM 65.7 °F - 33.8 °F 31% 30.13 in 10.0 mi SSE 5.8 mph - N/A   Clear
7:56 PM 63.7 °F - 37.2 °F 38% 30.12 in 10.0 mi SSE 4.6 mph - N/A   Clear
8:16 PM 63.1 °F - 36.3 °F 37% 30.12 in 10.0 mi SE 5.8 mph - N/A   Clear
8:37 PM 62.6 °F - 36.7 °F 38% 30.12 in 10.0 mi ESE 6.9 mph - N/A   Clear
8:56 PM 61.2 °F - 37.8 °F 42% 30.12 in 10.0 mi SE 5.8 mph - N/A   Clear
9:17 PM 61.0 °F - 37.6 °F 42% 30.12 in 10.0 mi SE 6.9 mph - N/A   Clear
9:36 PM 59.2 °F - 38.1 °F 46% 30.12 in 10.0 mi SE 6.9 mph - N/A   Clear
9:56 PM 58.8 °F - 37.4 °F 45% 30.12 in 10.0 mi SE 8.1 mph - N/A   Clear
10:17 PM 58.1 °F - 37.0 °F 45% 30.12 in 10.0 mi SE 8.1 mph - N/A   Clear
10:36 PM 57.0 °F - 36.9 °F 47% 30.12 in 10.0 mi SE 6.9 mph - N/A   Clear
10:56 PM 56.5 °F - 36.5 °F 47% 30.11 in 10.0 mi SE 6.9 mph - N/A   Clear
11:17 PM 54.5 °F - 36.9 °F 51% 30.11 in 10.0 mi SE 4.6 mph - N/A   Clear
11:36 PM 53.6 °F - 36.9 °F 53% 30.11 in 10.0 mi SE 4.6 mph - N/A   Clear
11:56 PM 52.2 °F - 37.6 °F 58% 30.10 in 10.0 mi SSE 4.6 mph - N/A   Clear